K8MUD Weather Reports


time (UTC)temp
C
wind
direction
speed
KPH
gust
KPH
rain 1hr
cm
rain 24hr
cm
rain mn
cm
humidity
%
barometer
mb
20260905062006 21 65 0.0 1.6 0.00 0.28 0.00 92 1013.6
20260905061952 21 65 0.0 1.6 0.00 0.28 0.00 92 1013.6
20260905061503 21 65 0.0 3.2 0.00 0.28 0.00 92 1013.6
20260905061452 21 65 0.0 3.2 0.00 0.28 0.00 92 1013.7
20260905061003 21 65 0.0 3.2 0.00 0.28 0.00 92 1013.7
20260905060952 21 65 0.0 3.2 0.00 0.28 0.00 92 1013.7
20260905060503 21 65 0.0 3.2 0.00 0.28 0.00 92 1013.8
20260905060452 21 65 0.0 3.2 0.00 0.28 0.00 92 1013.8
20260905060003 21 65 0.0 3.2 0.00 0.28 0.00 92 1013.9
20260905055951 21 65 0.0 3.2 0.00 0.28 0.00 92 1014.0
20260905055506 21 0 0.0 0.0 0.00 0.28 0.00 92 1014.0
20260905055451 21 0 0.0 0.0 0.00 0.28 0.00 91 1014.1
20260905055003 21 0 0.0 0.0 0.00 0.28 0.00 92 1014.0
20260905054951 21 0 0.0 0.0 0.00 0.28 0.00 92 1014.0
20260905054506 21 0 0.0 0.0 0.00 0.28 0.00 91 1014.0
20260905054451 21 0 0.0 0.0 0.00 0.28 0.00 91 1013.9
20260905054027 21 0 0.0 0.0 0.00 0.28 0.00 91 1013.8
20260905053951 21 0 0.0 0.0 0.00 0.28 0.00 91 1013.9
20260905053502 21 0 0.0 0.0 0.00 0.28 0.00 91 1013.7
20260905053451 21 0 0.0 0.0 0.00 0.28 0.00 91 1013.8
20260905053003 21 0 0.0 0.0 0.00 0.28 0.00 91 1013.7
20260905052951 21 0 0.0 0.0 0.00 0.28 0.00 91 1013.7
20260905052503 21 0 0.0 0.0 0.00 0.28 0.00 91 1013.6
20260905052451 21 0 0.0 0.0 0.00 0.28 0.00 91 1013.6
20260905052003 21 0 0.0 0.0 0.00 0.28 0.00 91 1013.6
20260905051951 21 0 0.0 0.0 0.00 0.28 0.00 91 1013.6
20260905051503 21 0 0.0 0.0 0.00 0.28 0.00 90 1013.7
20260905051451 21 0 0.0 0.0 0.00 0.28 0.00 90 1013.7
20260905051003 21 0 0.0 0.0 0.00 0.28 0.00 90 1013.9
20260905050951 21 0 0.0 0.0 0.00 0.28 0.00 90 1013.9
20260905050502 21 0 0.0 0.0 0.00 0.28 0.00 90 1013.9
20260905050451 21 0 0.0 0.0 0.00 0.28 0.00 90 1013.9
20260905050006 21 0 0.0 0.0 0.00 0.28 0.00 90 1014.0
20260905045951 21 0 0.0 0.0 0.00 0.28 0.00 90 1014.0
20260905045524 21 0 0.0 0.0 0.00 0.28 0.00 90 1014.0
20260905045451 21 0 0.0 0.0 0.00 0.28 0.00 90 1014.0
20260905045024 21 0 0.0 0.0 0.00 0.28 0.00 90 1014.0
20260905044951 21 0 0.0 0.0 0.00 0.28 0.00 90 1014.0
20260905044503 21 0 0.0 0.0 0.00 0.28 0.00 90 1013.9
20260905044450 21 0 0.0 0.0 0.00 0.28 0.00 90 1014.0
20260905044003 21 0 0.0 0.0 0.00 0.28 0.00 89 1014.0
20260905043950 21 0 0.0 0.0 0.00 0.28 0.00 89 1014.1
20260905043527 21 0 0.0 0.0 0.00 0.28 0.00 89 1014.0
20260905043450 21 0 0.0 0.0 0.00 0.28 0.00 89 1014.0
20260905043003 21 0 0.0 0.0 0.00 0.28 0.00 89 1014.0
20260905042950 21 0 0.0 0.0 0.00 0.28 0.00 89 1014.1
20260905042504 21 0 0.0 0.0 0.00 0.28 0.00 89 1014.0
20260905042450 21 0 0.0 0.0 0.00 0.28 0.00 89 1014.0
20260905042003 21 65 0.0 3.2 0.00 0.28 0.00 89 1014.1
20260905041950 21 65 0.0 3.2 0.00 0.28 0.00 89 1014.1
20260905041503 21 65 0.0 3.2 0.00 0.28 0.00 89 1014.1
20260905041450 21 65 0.0 3.2 0.00 0.28 0.00 89 1014.1
20260905041003 22 39 0.0 3.2 0.00 0.28 0.00 89 1014.1
20260905040950 22 27 0.0 3.2 0.00 0.28 0.00 89 1014.1
20260905040503 22 11 0.0 3.2 0.00 0.28 0.00 89 1014.2
20260905040450 22 10 0.0 3.2 0.00 0.28 0.00 89 1014.2
20260905040024 22 5 0.0 3.2 0.00 0.28 0.00 89 1014.3
20260905035950 22 5 0.0 3.2 0.00 0.28 0.28 89 1014.3
20260905035503 22 5 0.0 3.2 0.00 0.28 0.28 89 1014.3
20260905035450 22 5 0.0 3.2 0.00 0.28 0.28 89 1014.3
20260905035003 22 6 0.0 3.2 0.00 0.28 0.28 89 1014.3
20260905034950 22 23 0.0 1.6 0.00 0.28 0.28 89 1014.3
20260905034503 22 23 0.0 1.6 0.00 0.28 0.28 89 1014.3
20260905034450 22 22 0.0 1.6 0.00 0.28 0.28 89 1014.3
20260905034024 22 22 0.0 3.2 0.00 0.28 0.28 89 1014.5
20260905033950 22 22 0.0 3.2 0.00 0.28 0.28 89 1014.5
20260905033527 22 22 1.6 4.8 0.00 0.28 0.28 89 1014.5
20260905033420 22 22 1.6 4.8 0.00 0.28 0.28 89 1014.5
20260905033024 22 22 1.6 4.8 0.00 0.28 0.28 89 1014.6
20260905032920 22 22 1.6 4.8 0.00 0.28 0.28 89 1014.6
20260905032503 22 25 1.6 4.8 0.00 0.28 0.28 89 1014.6
20260905032420 22 25 1.6 4.8 0.00 0.28 0.28 89 1014.6
20260905032006 22 29 1.6 4.8 0.00 0.28 0.28 89 1014.5
20260905031920 22 36 1.6 6.4 0.00 0.28 0.28 89 1014.6
20260905031503 22 342 1.6 6.4 0.00 0.28 0.28 89 1014.5
20260905031419 22 340 1.6 8.0 0.00 0.28 0.28 89 1014.5
20260905031024 22 349 3.2 9.7 0.00 0.28 0.28 89 1014.5
20260905030919 22 345 1.6 9.7 0.00 0.28 0.28 89 1014.5
20260905030503 22 13 1.6 9.7 0.00 0.28 0.28 89 1014.6
20260905030419 22 31 1.6 9.7 0.00 0.28 0.28 90 1014.6
20260905030003 22 84 0.0 3.2 0.00 0.28 0.28 89 1014.6
20260905025919 22 84 0.0 3.2 0.00 0.28 0.28 89 1014.5
20260905025503 22 86 0.0 3.2 0.00 0.28 0.28 89 1014.5
20260905025419 22 86 0.0 3.2 0.00 0.28 0.28 89 1014.5
20260905025004 22 86 0.0 3.2 0.00 0.28 0.28 89 1014.4
20260905024919 22 86 0.0 3.2 0.00 0.28 0.28 89 1014.4
20260905024524 22 86 0.0 3.2 0.00 0.28 0.28 89 1014.5
20260905024419 22 86 0.0 3.2 0.00 0.28 0.28 89 1014.5
20260905024003 22 86 0.0 1.6 0.00 0.28 0.28 89 1014.4
20260905023919 22 86 0.0 1.6 0.00 0.28 0.28 89 1014.4
20260905023503 22 86 0.0 1.6 0.00 0.28 0.28 89 1014.4
20260905023419 22 86 0.0 3.2 0.00 0.28 0.28 89 1014.4
20260905023003 22 86 0.0 3.2 0.00 0.28 0.28 89 1014.4
20260905022919 22 86 0.0 3.2 0.00 0.28 0.28 89 1014.4
20260905022524 22 86 0.0 3.2 0.00 0.28 0.28 89 1014.4
20260905022419 22 0 0.0 0.0 0.00 0.28 0.28 89 1014.4
20260905022003 22 0 0.0 0.0 0.00 0.28 0.28 89 1014.4
20260905021919 22 0 0.0 0.0 0.00 0.28 0.28 89 1014.4
20260905021503 23 0 0.0 0.0 0.00 0.28 0.28 89 1014.4
20260905021419 23 0 0.0 0.0 0.00 0.28 0.28 89 1014.4
20260905021006 23 0 0.0 0.0 0.00 0.28 0.28 89 1014.5
20260905020919 23 0 0.0 0.0 0.00 0.28 0.28 89 1014.5
20260905020506 23 0 0.0 0.0 0.00 0.28 0.28 88 1014.6
20260905020419 23 0 0.0 0.0 0.00 0.28 0.28 88 1014.6
20260905020004 23 0 0.0 0.0 0.00 0.28 0.28 88 1014.6
20260905015919 23 0 0.0 0.0 0.00 0.28 0.28 89 1014.6
20260905015503 23 86 0.0 1.6 0.00 0.28 0.28 88 1014.5
20260905015419 23 86 0.0 1.6 0.00 0.28 0.28 88 1014.5
20260905015003 23 86 0.0 4.8 0.00 0.28 0.28 89 1014.6
20260905014918 23 87 0.0 4.8 0.00 0.28 0.28 89 1014.6
20260905014504 23 84 0.0 4.8 0.00 0.28 0.28 89 1014.6
20260905014418 23 82 0.0 4.8 0.00 0.28 0.28 88 1014.7
20260905014003 23 50 1.6 8.0 0.00 0.28 0.28 88 1014.7
20260905013918 23 45 1.6 8.0 0.00 0.28 0.28 88 1014.6
20260905013503 23 51 1.6 8.0 0.00 0.28 0.28 88 1014.5
20260905013418 23 54 1.6 8.0 0.00 0.28 0.28 88 1014.6
20260905013007 23 65 1.6 8.0 0.00 0.28 0.28 88 1014.5
20260905012918 23 69 1.6 6.4 0.00 0.28 0.28 88 1014.5
20260905012503 23 72 1.6 11.3 0.00 0.28 0.28 87 1014.5
20260905012418 23 68 1.6 11.3 0.00 0.28 0.28 87 1014.6
20260905012003 23 68 3.2 11.3 0.00 0.28 0.28 87 1014.5
20260905011918 23 66 3.2 11.3 0.00 0.28 0.28 87 1014.5
20260905011503 23 76 1.6 9.7 0.00 0.28 0.28 87 1014.4
20260905011418 23 81 1.6 9.7 0.00 0.28 0.28 87 1014.5
20260905011003 23 88 1.6 14.5 0.00 0.28 0.28 87 1014.5
20260905010918 23 87 1.6 14.5 0.00 0.28 0.28 87 1014.5
20260905010503 23 79 1.6 14.5 0.00 0.28 0.28 86 1014.5
20260905010418 23 76 1.6 14.5 0.00 0.28 0.28 86 1014.5
20260905010007 24 72 1.6 9.7 0.00 0.28 0.28 86 1014.5
20260905005918 24 77 1.6 9.7 0.00 0.28 0.28 86 1014.5
20260905005503 24 83 1.6 9.7 0.00 0.28 0.28 86 1014.3
20260905005418 24 86 1.6 9.7 0.00 0.28 0.28 86 1014.3
20260905005022 24 83 1.6 9.7 0.00 0.28 0.28 86 1014.3
20260905004848 24 79 1.6 6.4 0.00 0.28 0.28 86 1014.3
20260905004501 25 80 1.6 6.4 0.00 0.28 0.28 86 1014.2
20260905004347 25 80 1.6 6.4 0.00 0.28 0.28 86 1014.2
20260905004001 25 85 0.0 4.8 0.00 0.28 0.28 85 1014.3
20260905003847 25 82 0.0 4.8 0.00 0.28 0.28 85 1014.2
20260905003525 25 76 0.0 4.8 0.00 0.28 0.28 85 1014.2
20260905003347 25 76 0.0 4.8 0.00 0.28 0.28 85 1014.1
20260905003001 25 76 0.0 4.8 0.00 0.28 0.28 85 1014.1
20260905002847 25 69 0.0 3.2 0.00 0.28 0.28 85 1014.1
20260905002501 25 69 0.0 1.6 0.00 0.28 0.28 85 1014.0
20260905002347 25 69 0.0 1.6 0.00 0.28 0.28 85 1014.0
20260905002005 25 69 0.0 1.6 0.00 0.28 0.28 84 1014.0
20260905001847 25 69 0.0 1.6 0.00 0.28 0.28 84 1014.0
20260905001501 25 69 0.0 4.8 0.00 0.28 0.28 84 1013.9
20260905001347 25 67 1.6 4.8 0.00 0.28 0.28 84 1013.9
20260905001001 25 65 1.6 8.0 0.00 0.28 0.28 84 1013.8
20260905000847 25 64 1.6 8.0 0.00 0.28 0.28 83 1013.7
20260905000501 25 60 0.0 8.0 0.00 0.28 0.28 83 1013.7
20260905000348 25 41 0.0 8.0 0.00 0.28 0.28 83 1013.7
20260905000023 25 351 0.0 3.2 0.00 0.28 0.28 83 1013.7
20260904235847 26 342 0.0 3.2 0.00 0.28 0.28 82 1013.7
20260904235501 26 338 0.0 3.2 0.00 0.28 0.28 81 1013.6
20260904235347 26 305 0.0 4.8 0.00 0.28 0.28 81 1013.6
20260904235004 26 304 1.6 4.8 0.00 0.28 0.28 80 1013.7
20260904234847 26 304 1.6 4.8 0.00 0.28 0.28 80 1013.6
20260904234502 26 304 1.6 4.8 0.00 0.28 0.28 79 1013.6
20260904234347 26 304 1.6 4.8 0.00 0.28 0.28 80 1013.7
20260904234022 26 304 1.6 4.8 0.00 0.28 0.28 79 1013.6
20260904233846 26 304 0.0 4.8 0.00 0.28 0.28 80 1013.6
20260904233501 26 304 0.0 4.8 0.00 0.28 0.28 80 1013.6
20260904233346 26 304 0.0 4.8 0.00 0.28 0.28 80 1013.6
20260904233022 26 304 1.6 4.8 0.00 0.28 0.28 80 1013.6
20260904232846 26 304 1.6 4.8 0.00 0.28 0.28 80 1013.6
20260904232502 26 304 3.2 6.4 0.00 0.28 0.28 80 1013.5
20260904232346 26 304 3.2 6.4 0.00 0.28 0.28 80 1013.5
20260904232001 26 305 3.2 6.4 0.00 0.28 0.28 79 1013.5
20260904231846 26 305 1.6 6.4 0.00 0.28 0.28 79 1013.4
20260904231502 26 306 1.6 6.4 0.00 0.28 0.28 79 1013.3
20260904231346 26 308 1.6 6.4 0.00 0.28 0.28 80 1013.3
20260904231001 26 309 1.6 6.4 0.00 0.28 0.28 79 1013.3
20260904230846 26 309 3.2 6.4 0.00 0.28 0.28 79 1013.2
20260904230525 26 310 3.2 6.4 0.00 0.28 0.28 79 1013.2
20260904230346 26 310 3.2 6.4 0.00 0.28 0.28 79 1013.1
20260904230002 26 310 1.6 6.4 0.00 0.28 0.28 79 1013.1
20260904225846 26 310 3.2 8.0 0.00 0.28 0.28 80 1013.1
20260904225501 26 309 3.2 8.0 0.00 0.28 0.28 79 1013.1
20260904225346 26 309 3.2 8.0 0.00 0.28 0.28 80 1013.2
20260904225004 26 309 3.2 8.0 0.00 0.28 0.28 79 1013.2
20260904224846 26 310 1.6 6.4 0.00 0.28 0.28 79 1013.2
20260904224501 26 310 1.6 6.4 0.00 0.28 0.28 79 1013.1
20260904224346 26 310 1.6 6.4 0.00 0.28 0.28 79 1013.1
20260904224001 26 310 1.6 6.4 0.00 0.28 0.28 79 1013.1
20260904223846 26 310 1.6 6.4 0.00 0.28 0.28 79 1013.2
20260904223504 26 310 1.6 4.8 0.00 0.28 0.28 79 1013.2
20260904223345 26 310 3.2 4.8 0.00 0.28 0.28 79 1013.2
20260904223001 26 308 3.2 11.3 0.00 0.28 0.28 79 1013.1
20260904222845 26 311 3.2 11.3 0.00 0.28 0.28 80 1013.1
20260904222502 26 315 3.2 11.3 0.00 0.28 0.28 79 1013.2
20260904222345 26 317 3.2 11.3 0.00 0.28 0.28 79 1013.1
20260904222001 26 316 3.2 6.4 0.00 0.28 0.28 79 1013.2
20260904221845 26 311 3.2 6.4 0.00 0.28 0.28 79 1013.1
20260904221501 26 301 4.8 9.7 0.00 0.28 0.28 79 1013.1
20260904221345 26 296 4.8 12.9 0.00 0.28 0.28 79 1013.1
20260904221023 26 299 4.8 12.9 0.00 0.28 0.28 79 1013.2
20260904220845 26 297 4.8 12.9 0.00 0.28 0.28 79 1013.3
20260904220501 26 295 4.8 12.9 0.00 0.28 0.28 79 1013.2
20260904220345 26 296 4.8 12.9 0.00 0.28 0.28 79 1013.2
20260904220002 26 294 4.8 12.9 0.00 0.28 0.28 80 1013.2
20260904215845 26 297 4.8 12.9 0.00 0.28 0.28 79 1013.2
20260904215502 26 298 4.8 12.9 0.00 0.28 0.28 79 1013.2
20260904215345 26 296 4.8 12.9 0.00 0.28 0.28 79 1013.1
20260904215001 26 290 4.8 12.9 0.00 0.28 0.28 80 1013.0
20260904214845 26 286 4.8 12.9 0.00 0.28 0.28 79 1013.1
20260904214501 26 300 4.8 12.9 0.00 0.28 0.28 80 1013.0
20260904214345 26 306 4.8 12.9 0.00 0.28 0.28 80 1013.0
20260904214002 26 311 6.4 12.9 0.00 0.28 0.28 80 1013.0
20260904213845 26 316 6.4 12.9 0.00 0.28 0.28 80 1013.0
20260904213502 26 307 6.4 12.9 0.00 0.28 0.28 80 1013.0
20260904213345 26 303 6.4 12.9 0.00 0.28 0.28 79 1013.0
20260904213001 26 297 6.4 12.9 0.00 0.28 0.28 80 1012.9
20260904212845 26 295 4.8 12.9 0.00 0.28 0.28 80 1012.8
20260904212505 26 300 4.8 12.9 0.00 0.28 0.28 80 1012.7
20260904212344 26 302 4.8 12.9 0.00 0.28 0.28 80 1012.5
20260904212001 26 307 4.8 11.3 0.00 0.28 0.28 81 1012.5
20260904211844 26 304 4.8 12.9 0.00 0.28 0.28 80 1012.5
20260904211522 26 299 4.8 12.9 0.00 0.28 0.28 80 1012.6
20260904211344 26 299 6.4 14.5 0.00 0.28 0.28 80 1012.6
20260904211002 26 297 8.0 14.5 0.00 0.28 0.28 80 1012.6
20260904210844 26 296 6.4 14.5 0.00 0.28 0.28 80 1012.6
20260904210502 25 302 8.0 14.5 0.00 0.28 0.28 80 1012.6
20260904210344 25 306 6.4 14.5 0.00 0.28 0.28 81 1012.4
20260904210004 25 316 4.8 12.9 0.00 0.28 0.28 81 1012.2
20260904205844 25 322 6.4 12.9 0.00 0.28 0.28 81 1012.2
20260904205523 25 325 6.4 16.1 0.00 0.28 0.28 81 1012.3
20260904205344 25 318 6.4 16.1 0.00 0.28 0.28 81 1012.3
20260904205002 25 316 4.8 16.1 0.00 0.28 0.28 80 1012.3
20260904204844 25 310 4.8 16.1 0.00 0.30 0.28 80 1012.4
20260904204501 25 307 4.8 12.9 0.00 0.30 0.28 81 1012.4
20260904204344 25 313 4.8 8.0 0.00 0.30 0.28 81 1012.4
20260904204002 25 320 4.8 12.9 0.00 0.30 0.28 81 1012.2
20260904203844 25 321 6.4 12.9 0.00 0.33 0.28 81 1012.2
20260904203501 25 318 8.0 16.1 0.00 0.36 0.28 81 1012.1
20260904203344 25 318 6.4 16.1 0.00 0.38 0.28 80 1012.2
20260904203002 26 311 6.4 16.1 0.00 0.46 0.28 80 1012.3
20260904202844 26 296 6.4 16.1 0.00 0.58 0.28 80 1012.3
20260904202523 26 282 4.8 16.1 0.00 0.91 0.28 80 1012.3
20260904202344 26 271 4.8 12.9 0.00 1.30 0.28 80 1012.4
20260904202004 26 283 4.8 12.9 0.00 1.75 0.28 80 1012.5
20260904201844 26 303 6.4 12.9 0.00 1.85 0.28 81 1012.6
20260904201523 26 303 6.4 16.1 0.00 1.91 0.28 80 1012.8
20260904201344 26 302 4.8 16.1 0.00 1.96 0.28 80 1012.7
20260904201001 26 287 4.8 16.1 0.00 1.96 0.28 80 1012.8
20260904200843 26 269 3.2 16.1 0.00 1.96 0.28 80 1012.8
20260904200502 26 268 3.2 11.3 0.00 1.96 0.28 80 1012.8
20260904200343 26 274 4.8 11.3 0.00 1.96 0.28 80 1012.9
20260904200026 26 288 4.8 12.9 0.00 1.96 0.28 80 1012.9
20260904195843 26 295 4.8 12.9 0.00 1.96 0.28 80 1012.9
20260904195502 26 296 3.2 12.9 0.00 1.96 0.28 80 1012.9
20260904195343 25 300 3.2 12.9 0.00 1.96 0.28 80 1012.9
20260904195002 25 284 1.6 8.0 0.00 1.96 0.28 81 1013.0
20260904194843 25 270 3.2 11.3 0.00 1.96 0.28 81 1012.9
20260904194502 25 265 3.2 11.3 0.00 1.96 0.28 81 1012.9
20260904194343 25 271 4.8 11.3 0.00 1.96 0.28 81 1013.0
20260904194022 25 275 4.8 11.3 0.00 1.96 0.28 81 1013.0
20260904193843 25 281 4.8 11.3 0.00 1.96 0.28 81 1013.1
20260904193501 25 287 4.8 14.5 0.00 1.96 0.28 81 1013.2
20260904193343 25 286 4.8 14.5 0.00 1.96 0.28 81 1013.2
20260904193002 25 287 3.2 14.5 0.00 1.96 0.28 81 1013.2
20260904192843 25 284 3.2 14.5 0.00 1.96 0.28 81 1013.2
20260904192501 25 257 3.2 11.3 0.00 1.96 0.28 81 1013.2
20260904192343 25 261 4.8 11.3 0.00 1.96 0.28 81 1013.2
20260904192001 25 255 4.8 11.3 0.00 1.96 0.28 81 1013.2
20260904191843 25 262 6.4 14.5 0.00 1.96 0.28 81 1013.3
20260904191502 25 275 4.8 14.5 0.00 1.96 0.28 81 1013.4
20260904191343 25 268 4.8 14.5 0.00 1.96 0.28 81 1013.4
20260904191002 25 265 4.8 14.5 0.00 1.96 0.28 81 1013.4
20260904190843 25 260 4.8 16.1 0.00 1.96 0.28 81 1013.4
20260904190522 25 265 6.4 16.1 0.00 1.96 0.28 81 1013.4
20260904190343 25 270 6.4 16.1 0.00 1.96 0.28 82 1013.5
20260904190001 25 274 6.4 16.1 0.00 1.96 0.28 82 1013.5
20260904185843 25 280 4.8 12.9 0.00 1.96 0.28 83 1013.4
20260904185502 25 282 4.8 11.3 0.00 1.96 0.28 84 1013.5
20260904185342 25 280 4.8 11.3 0.00 1.96 0.28 84 1013.4
20260904185001 25 272 3.2 11.3 0.00 1.96 0.28 84 1013.5
20260904184842 25 264 4.8 11.3 0.00 1.96 0.28 85 1013.5
20260904184501 25 263 4.8 12.9 0.00 1.96 0.28 85 1013.6
20260904184342 25 263 4.8 12.9 0.00 1.96 0.28 85 1013.5
20260904184002 24 264 4.8 12.9 0.00 1.96 0.28 85 1013.5
20260904183842 24 265 4.8 12.9 0.00 1.96 0.28 85 1013.6
20260904183523 24 263 4.8 12.9 0.00 1.96 0.28 86 1013.6
20260904183342 24 266 4.8 12.9 0.00 1.96 0.28 86 1013.7
20260904183001 24 273 4.8 12.9 0.00 1.96 0.28 87 1013.8
20260904182842 24 272 4.8 12.9 0.00 1.96 0.28 87 1013.7
20260904182501 24 268 4.8 11.3 0.00 1.96 0.28 88 1013.7
20260904182342 24 262 4.8 11.3 0.00 1.96 0.28 88 1013.9
20260904182002 24 259 4.8 11.3 0.00 1.96 0.28 88 1013.9
20260904181842 24 263 4.8 11.3 0.00 1.96 0.28 89 1013.8
20260904181501 24 250 3.2 9.7 0.00 1.96 0.28 89 1013.7
20260904181342 24 239 4.8 9.7 0.00 1.96 0.28 90 1013.8
20260904181023 24 227 4.8 11.3 0.00 1.96 0.28 90 1013.7
20260904180842 23 216 4.8 11.3 0.00 1.96 0.28 90 1013.7
20260904180502 23 217 3.2 11.3 0.00 1.96 0.28 90 1013.7
20260904180342 24 221 3.2 11.3 0.00 1.96 0.28 90 1013.7
20260904180001 23 227 3.2 11.3 0.00 1.96 0.28 93 1013.7
20260904175842 23 228 3.2 11.3 0.00 1.96 0.28 93 1013.8
20260904175502 23 236 4.8 12.9 0.00 1.96 0.28 93 1014.0
20260904175342 23 232 4.8 12.9 0.00 1.96 0.28 93 1013.9
20260904175002 23 222 4.8 12.9 0.00 1.96 0.28 93 1013.9
20260904174841 23 218 3.2 12.9 0.00 1.96 0.28 94 1013.9
20260904174501 23 203 3.2 6.4 0.00 1.96 0.28 94 1014.1
20260904174341 23 203 1.6 4.8 0.00 1.96 0.28 95 1014.0
20260904174002 23 203 1.6 6.4 0.00 1.96 0.28 96 1013.9
20260904173841 23 202 1.6 6.4 0.00 1.96 0.28 96 1013.8
20260904173502 23 201 3.2 6.4 0.00 1.96 0.28 96 1013.9
20260904173343 23 201 3.2 6.4 0.00 1.96 0.28 96 1014.0
20260904173002 22 200 3.2 6.4 0.00 1.96 0.28 97 1014.1
20260904172841 22 200 3.2 6.4 0.00 1.96 0.28 97 1014.2
20260904172502 22 201 3.2 8.0 0.00 1.96 0.28 97 1014.2
20260904172341 22 207 3.2 8.0 0.00 1.96 0.28 97 1014.3
20260904172002 22 220 3.2 8.0 0.00 1.96 0.28 97 1014.4
20260904171841 22 229 3.2 8.0 0.00 1.96 0.28 97 1014.5
20260904171526 22 238 3.2 6.4 0.00 2.03 0.28 97 1014.5
20260904171341 22 237 3.2 6.4 0.00 2.11 0.28 97 1014.6
20260904171002 22 236 3.2 6.4 0.00 2.11 0.28 97 1014.4
20260904170841 22 235 1.6 4.8 0.00 2.11 0.28 97 1014.4
20260904170523 22 234 1.6 4.8 0.00 2.11 0.28 97 1014.4
20260904170341 22 234 1.6 4.8 0.00 2.13 0.28 97 1014.4
20260904165841 22 234 1.6 4.8 0.00 2.44 0.28 97 1014.5
20260904165502 22 234 0.0 4.8 0.00 2.46 0.28 97 1014.5
20260904165341 22 234 0.0 3.2 0.00 2.46 0.28 97 1014.5
20260904165002 22 234 0.0 3.2 0.00 2.46 0.28 97 1014.5
20260904164841 21 234 0.0 3.2 0.00 2.46 0.28 97 1014.5
20260904164523 21 234 1.6 4.8 0.00 2.46 0.28 97 1014.7
20260904164341 21 234 1.6 4.8 0.00 2.46 0.28 97 1014.7
20260904164001 21 234 1.6 4.8 0.00 2.49 0.28 96 1014.8
20260904163840 21 234 1.6 4.8 0.00 2.49 0.28 97 1014.9
20260904163523 21 234 1.6 3.2 0.00 2.51 0.28 97 1015.0
20260904163340 21 234 1.6 3.2 0.00 2.51 0.28 96 1015.0
20260904163002 21 234 1.6 3.2 0.00 2.51 0.28 96 1014.9
20260904162840 21 234 0.0 3.2 0.00 2.51 0.28 96 1015.0
20260904162502 21 234 1.6 4.8 0.00 2.51 0.28 97 1015.0
20260904162340 21 234 1.6 4.8 0.00 2.51 0.28 96 1015.1
20260904162001 21 234 1.6 6.4 0.03 2.51 0.28 97 1015.3
20260904161840 21 234 1.6 6.4 0.03 2.51 0.28 97 1015.2
20260904161502 22 232 3.2 6.4 0.03 2.51 0.28 97 1015.3
20260904161340 21 229 1.6 6.4 0.03 2.51 0.28 97 1015.2
20260904161002 21 223 1.6 6.4 0.03 2.51 0.28 97 1015.3
20260904160840 21 217 1.6 6.4 0.03 2.51 0.28 97 1015.4
20260904160502 21 208 1.6 6.4 0.05 2.54 0.28 97 1015.3
20260904160340 21 211 1.6 6.4 0.05 2.54 0.28 97 1015.2
20260904160002 21 245 3.2 6.4 0.05 2.57 0.28 97 1015.1
20260904155840 21 271 1.6 6.4 0.08 2.59 0.28 97 1015.4
20260904155502 21 302 1.6 6.4 0.08 2.67 0.28 97 1015.5
20260904155340 21 306 1.6 6.4 0.08 2.82 0.28 97 1015.7
20260904155009 21 331 0.0 4.8 0.10 2.87 0.28 97 1015.7
20260904154840 21 331 1.6 6.4 0.10 2.87 0.28 97 1015.9
20260904154502 21 323 1.6 8.0 0.10 2.87 0.28 97 1015.9
20260904154340 21 320 1.6 8.0 0.10 2.87 0.28 97 1016.0
20260904154002 21 310 1.6 8.0 0.10 2.87 0.28 97 1016.1
20260904153840 21 275 1.6 8.0 0.13 2.87 0.28 97 1015.9
20260904153502 21 266 1.6 4.8 0.13 2.87 0.28 97 1015.8
20260904153340 21 274 1.6 4.8 0.13 2.87 0.28 97 1015.7
20260904153002 21 279 1.6 4.8 0.13 2.87 0.28 97 1015.7
20260904152839 21 290 1.6 4.8 0.13 2.87 0.28 97 1015.9
20260904152523 21 291 1.6 4.8 0.13 2.87 0.28 97 1016.1
20260904152339 21 291 0.0 3.2 0.13 2.87 0.28 97 1016.2
20260904152002 21 291 0.0 3.2 0.13 2.84 0.25 97 1016.2
20260904151839 21 291 0.0 3.2 0.13 2.84 0.25 96 1016.2
20260904151501 21 291 0.0 1.6 0.13 2.84 0.25 96 1016.4
20260904151339 21 291 0.0 1.6 0.13 2.84 0.25 97 1016.3
20260904151002 21 291 0.0 3.2 0.15 2.84 0.25 96 1016.2
20260904150839 21 291 0.0 3.2 0.15 2.84 0.25 96 1016.3
20260904150502 21 291 1.6 4.8 0.13 2.82 0.23 96 1016.5
20260904150339 21 291 1.6 6.4 0.13 2.82 0.23 96 1016.5
20260904150002 21 292 1.6 6.4 0.13 2.79 0.20 96 1016.5
20260904145839 21 292 1.6 6.4 0.13 2.79 0.20 96 1016.5
20260904145502 21 293 1.6 6.4 0.13 2.79 0.20 96 1016.4
20260904145339 21 294 1.6 4.8 0.15 2.79 0.20 96 1016.4
20260904145002 21 296 1.6 4.8 0.13 2.77 0.18 96 1016.4
20260904144839 21 296 1.6 4.8 0.13 2.77 0.18 96 1016.4
20260904144502 21 297 1.6 4.8 0.13 2.77 0.18 96 1016.4
20260904144339 21 297 1.6 4.8 0.15 2.77 0.18 96 1016.3
20260904144005 21 297 1.6 3.2 0.15 2.77 0.18 96 1016.3
20260904143839 21 297 1.6 3.2 0.13 2.74 0.15 96 1016.3
20260904143523 21 297 1.6 3.2 0.13 2.74 0.15 96 1016.3
20260904143339 21 297 1.6 3.2 0.13 2.74 0.15 96 1016.3
20260904143005 21 297 1.6 3.2 0.13 2.74 0.15 96 1016.4
20260904142838 21 297 1.6 3.2 0.13 2.74 0.15 96 1016.4
20260904142524 21 297 0.0 3.2 0.13 2.74 0.15 96 1016.5
20260904142338 21 297 0.0 3.2 0.13 2.74 0.15 96 1016.4
20260904142002 21 297 0.0 1.6 0.10 2.72 0.13 96 1016.3
20260904141838 21 297 0.0 3.2 0.10 2.72 0.13 96 1016.1
20260904141502 21 297 0.0 3.2 0.10 2.72 0.13 96 1016.0
20260904141338 21 297 0.0 3.2 0.10 2.72 0.13 96 1016.0
20260904141002 21 297 0.0 3.2 0.08 2.69 0.10 96 1016.0
20260904140838 21 297 1.6 3.2 0.08 2.69 0.10 96 1016.0
20260904140505 21 297 1.6 4.8 0.08 2.69 0.10 96 1015.9
20260904140338 21 297 1.6 4.8 0.08 2.69 0.10 96 1016.0
20260904140002 21 297 3.2 4.8 0.05 2.67 0.08 96 1016.0
20260904135838 21 292 3.2 4.8 0.05 2.67 0.08 96 1016.2
20260904135523 21 283 3.2 4.8 0.03 2.64 0.08 96 1016.3
20260904135338 21 263 1.6 4.8 0.03 2.64 0.05 96 1016.3
20260904135002 21 163 1.6 4.8 0.03 2.64 0.05 96 1016.4
20260904134838 21 147 1.6 3.2 0.03 2.64 0.05 96 1016.5
20260904134502 21 147 1.6 4.8 0.03 2.64 0.05 96 1016.4
20260904134338 21 147 1.6 4.8 0.00 2.62 0.03 96 1016.4
20260904134002 21 147 1.6 4.8 0.00 2.62 0.03 96 1016.3
20260904133838 21 146 0.0 4.8 0.00 2.62 0.03 96 1016.2
20260904133523 21 146 0.0 1.6 0.00 2.62 0.03 96 1016.0
20260904133338 21 146 0.0 1.6 0.00 2.62 0.03 96 1015.9
20260904133003 21 146 0.0 1.6 0.00 2.62 0.03 96 1015.9
20260904132838 21 146 0.0 1.6 0.03 2.62 0.03 96 1015.9
20260904132502 21 146 0.0 1.6 0.03 2.62 0.03 96 1015.9
20260904132338 21 146 0.0 3.2 0.03 2.62 0.03 96 1015.9
20260904132002 21 146 1.6 3.2 0.03 2.62 0.03 96 1016.1
20260904131838 21 146 1.6 3.2 0.03 2.62 0.03 96 1016.1
20260904131502 21 146 1.6 3.2 0.03 2.62 0.03 96 1016.1
20260904131337 21 146 1.6 3.2 0.03 2.62 0.03 96 1016.1
20260904131002 21 146 0.0 3.2 0.03 2.62 0.03 96 1016.0
20260904130837 21 146 0.0 3.2 0.03 2.62 0.03 96 1015.7
20260904130502 21 0 0.0 0.0 0.03 2.62 0.03 96 1015.7
20260904130337 21 146 0.0 3.2 0.03 2.62 0.03 96 1015.7
20260904130002 21 146 0.0 3.2 0.03 2.62 0.03 96 1015.7
20260904125837 21 146 1.6 3.2 0.03 2.62 0.03 96 1015.6
20260904125502 21 146 1.6 3.2 0.03 2.62 0.03 96 1015.5
20260904125337 21 146 1.6 3.2 0.03 2.62 0.03 96 1015.6
20260904125005 21 146 0.0 3.2 0.03 2.62 0.03 96 1015.5
20260904124837 21 146 0.0 3.2 0.03 2.62 0.03 96 1015.8
20260904124502 21 146 0.0 3.2 0.03 2.62 0.03 96 1015.7
20260904124337 21 146 0.0 3.2 0.03 2.62 0.03 96 1015.7
20260904124002 21 146 0.0 3.2 0.03 2.62 0.03 96 1015.6
20260904123837 21 146 0.0 1.6 0.03 2.62 0.03 96 1015.5
20260904123505 21 146 0.0 3.2 0.03 2.62 0.03 96 1015.5
20260904123337 21 146 1.6 3.2 0.03 2.62 0.03 96 1015.5
20260904123002 21 146 1.6 3.2 0.03 2.62 0.03 96 1015.5
20260904122837 21 146 1.6 3.2 0.00 2.59 0.00 96 1015.5
20260904122502 21 146 0.0 3.2 0.00 2.59 0.00 96 1015.3
20260904122337 21 146 0.0 1.6 0.00 2.59 0.00 96 1015.3
20260904122005 21 146 0.0 1.6 0.00 2.59 0.00 96 1015.4
20260904121837 21 146 0.0 3.2 0.00 2.59 0.00 96 1015.4
20260904121503 21 146 0.0 3.2 0.00 2.59 0.00 96 1015.7
20260904121337 21 146 1.6 3.2 0.00 2.59 0.00 96 1015.9
20260904121005 21 146 1.6 4.8 0.00 2.59 0.00 96 1015.9
20260904120837 21 146 1.6 4.8 0.00 2.59 0.00 96 1015.8
20260904120502 21 146 1.6 4.8 0.00 2.59 0.00 96 1015.7
20260904120336 21 146 1.6 4.8 0.00 2.59 0.00 96 1015.6
20260904120003 21 146 1.6 3.2 0.00 2.59 0.00 96 1015.4
20260904115836 21 146 1.6 3.2 0.00 2.59 0.00 96 1015.5
20260904115502 21 150 1.6 8.0 0.00 2.59 0.00 96 1015.5
20260904115336 21 156 3.2 8.0 0.00 2.59 0.00 96 1015.4
20260904115002 21 160 3.2 8.0 0.00 2.59 0.00 96 1015.2
20260904114836 21 162 3.2 8.0 0.00 2.59 0.00 96 1015.1
20260904114502 21 167 3.2 6.4 0.00 2.59 0.00 97 1015.1
20260904114336 21 167 1.6 6.4 0.00 2.59 0.00 96 1015.2
20260904114024 21 167 1.6 6.4 0.00 2.59 0.00 96 1015.1
20260904113836 21 167 1.6 6.4 0.00 2.59 0.00 96 1014.7
20260904113502 21 167 1.6 4.8 0.00 2.59 0.00 96 1015.1
20260904113336 21 167 1.6 6.4 0.00 2.59 0.00 96 1015.3
20260904113002 21 167 1.6 6.4 0.00 2.59 0.00 96 1015.4
20260904112836 21 167 1.6 8.0 0.00 2.59 0.00 96 1015.1
20260904112523 21 167 1.6 8.0 0.00 2.59 0.00 96 1015.0
20260904112336 21 167 1.6 8.0 0.00 2.59 0.00 97 1014.9
20260904112024 21 167 1.6 8.0 0.00 2.59 0.00 97 1014.9
20260904111836 21 167 1.6 6.4 0.00 2.59 0.00 97 1014.7
20260904111502 21 167 1.6 6.4 0.00 2.59 0.00 97 1014.7
20260904111336 21 167 1.6 6.4 0.00 2.59 0.00 97 1014.8
20260904111023 21 167 1.6 6.4 0.00 2.59 0.00 97 1014.7
20260904110836 21 167 1.6 6.4 0.00 2.59 0.00 97 1014.7
20260904110502 21 167 1.6 4.8 0.00 2.59 0.00 97 1014.9
20260904110336 21 167 1.6 6.4 0.00 2.59 0.00 97 1014.9
20260904110003 21 168 1.6 6.4 0.00 2.59 0.00 97 1014.9
20260904105836 21 166 3.2 9.7 0.00 2.59 0.00 97 1014.9
20260904105502 21 159 3.2 9.7 0.00 2.59 0.00 97 1014.8
20260904105336 21 153 3.2 9.7 0.00 2.59 0.00 97 1014.8
20260904105024 20 148 3.2 9.7 0.00 2.59 0.00 97 1014.9
20260904104836 20 138 1.6 4.8 0.00 2.59 0.00 97 1014.9
20260904104503 20 136 1.6 4.8 0.00 2.59 0.00 97 1014.9
20260904104335 20 127 1.6 4.8 0.00 2.59 0.00 97 1014.8
20260904104005 20 110 3.2 6.4 0.00 2.59 0.00 97 1014.6
20260904103835 20 100 3.2 6.4 0.00 2.59 0.00 97 1014.7
20260904103502 20 83 3.2 6.4 0.00 2.59 0.00 97 1014.6
20260904103335 20 78 3.2 6.4 0.00 2.59 0.00 97 1014.5
20260904103006 20 69 3.2 6.4 0.00 2.59 0.00 97 1014.4
20260904102835 20 61 3.2 4.8 0.00 2.59 0.00 97 1014.4
20260904102502 20 54 3.2 4.8 0.00 2.59 0.00 97 1014.2
20260904102335 20 49 3.2 4.8 0.00 2.59 0.00 96 1014.2
20260904102003 20 42 1.6 4.8 0.00 2.59 0.00 96 1014.0
20260904101835 20 38 1.6 4.8 0.00 2.59 0.00 96 1014.0
20260904101502 20 38 1.6 3.2 0.00 2.59 0.00 97 1014.1
20260904101335 20 38 1.6 3.2 0.00 2.59 0.00 97 1014.2
20260904101002 20 38 1.6 3.2 0.00 2.59 0.00 97 1014.2
20260904100835 20 38 1.6 4.8 0.00 2.59 0.00 97 1014.2
20260904100503 20 38 1.6 4.8 0.00 2.59 0.00 97 1014.0
20260904100335 20 38 1.6 4.8 0.00 2.59 0.00 97 1013.9
20260904100002 20 35 1.6 4.8 0.00 2.59 0.00 96 1013.9
20260904095835 20 34 1.6 4.8 0.00 2.59 0.00 96 1013.8
20260904095503 20 32 3.2 4.8 0.00 2.59 0.00 96 1013.7
20260904095335 20 31 3.2 4.8 0.00 2.59 0.00 96 1013.8
20260904095003 20 31 3.2 4.8 0.00 2.59 0.00 96 1013.7
20260904094835 20 31 1.6 4.8 0.00 2.59 0.00 96 1013.8
20260904094502 20 30 1.6 6.4 0.00 2.59 0.00 97 1013.9
20260904094335 20 30 1.6 6.4 0.00 2.59 0.00 97 1014.0
20260904094003 20 30 1.6 6.4 0.00 2.59 0.00 97 1014.1
20260904093835 20 30 1.6 6.4 0.00 2.59 0.00 97 1014.2
20260904093502 20 30 0.0 3.2 0.00 2.59 0.00 96 1014.3
20260904093335 20 30 0.0 3.2 0.00 2.59 0.00 96 1014.3
20260904093002 20 30 0.0 3.2 0.00 2.59 0.00 96 1014.3
20260904092835 20 30 1.6 3.2 0.00 2.59 0.00 96 1014.4
20260904092524 20 30 0.0 3.2 0.00 2.59 0.00 96 1014.6
20260904092335 20 30 1.6 3.2 0.00 2.59 0.00 96 1014.7
20260904092005 20 30 1.6 3.2 0.00 2.59 0.00 96 1014.7
20260904091835 20 30 0.0 1.6 0.00 2.59 0.00 96 1014.8
20260904091503 20 30 0.0 3.2 0.00 2.59 0.00 96 1014.7
20260904091334 20 30 0.0 3.2 0.00 2.59 0.00 96 1014.6
20260904091003 20 30 0.0 3.2 0.00 2.59 0.00 96 1014.7
20260904090834 20 30 1.6 4.8 0.00 2.59 0.00 96 1014.7
20260904090502 20 30 1.6 4.8 0.00 2.59 0.00 96 1014.7
20260904090334 20 30 1.6 4.8 0.00 2.62 0.00 97 1014.6
20260904090003 20 30 1.6 4.8 0.00 2.62 0.00 97 1014.7
20260904085834 20 30 1.6 4.8 0.00 2.62 0.00 97 1014.7
20260904085502 20 30 1.6 3.2 0.00 2.62 0.00 97 1014.8
20260904085334 20 30 0.0 3.2 0.00 2.62 0.00 97 1014.9
20260904085002 20 30 0.0 3.2 0.00 2.62 0.00 97 1014.7
20260904084834 20 30 0.0 3.2 0.00 2.62 0.00 97 1014.6
20260904084503 20 30 1.6 6.4 0.00 2.62 0.00 97 1014.6
20260904084334 20 30 0.0 6.4 0.00 2.62 0.00 97 1014.7
20260904084003 20 29 0.0 6.4 0.00 2.62 0.00 97 1014.8
20260904083834 20 29 0.0 6.4 0.00 2.62 0.00 97 1014.8
20260904083502 20 31 0.0 4.8 0.00 2.62 0.00 97 1014.9
20260904083334 20 31 0.0 4.8 0.00 2.62 0.00 96 1014.9
20260904083003 20 33 0.0 4.8 0.00 2.62 0.00 96 1015.0
20260904082834 20 34 0.0 4.8 0.00 2.62 0.00 96 1015.0
20260904082503 20 34 0.0 3.2 0.00 2.62 0.00 96 1015.0
20260904082334 20 34 0.0 3.2 0.00 2.62 0.00 96 1015.0
20260904082003 20 34 0.0 3.2 0.00 2.62 0.00 96 1015.0
20260904081834 20 34 0.0 1.6 0.00 2.62 0.00 96 1015.0
20260904081505 20 33 0.0 1.6 0.00 2.62 0.00 96 1014.8
20260904081334 20 33 0.0 3.2 0.00 2.62 0.00 96 1014.9
20260904081003 20 33 0.0 3.2 0.00 2.62 0.00 96 1014.7
20260904080834 20 37 1.6 6.4 0.00 2.62 0.00 96 1014.7
20260904080503 20 45 1.6 6.4 0.00 2.62 0.00 96 1014.7
20260904080334 20 47 1.6 6.4 0.00 2.62 0.00 96 1014.5
20260904080005 20 59 1.6 6.4 0.00 2.62 0.00 96 1014.5
20260904075834 20 74 0.0 3.2 0.00 2.62 0.00 96 1014.4
20260904075523 20 59 0.0 4.8 0.00 2.62 0.00 96 1014.5
20260904075334 20 21 0.0 4.8 0.00 2.64 0.00 96 1014.4
20260904075003 20 349 1.6 4.8 0.00 2.67 0.00 96 1014.2
20260904074833 20 336 1.6 6.4 0.00 2.69 0.00 96 1014.3
20260904074502 20 357 1.6 6.4 0.00 2.74 0.00 96 1014.4
20260904074333 20 10 1.6 6.4 0.00 2.77 0.00 96 1014.3
20260904074002 20 37 1.6 6.4 0.00 2.77 0.00 96 1014.5
20260904073833 20 83 1.6 4.8 0.00 2.79 0.00 96 1014.4
20260904073503 20 75 0.0 4.8 0.00 2.79 0.00 96 1014.3
20260904073333 20 50 1.6 4.8 0.00 2.79 0.00 96 1014.3
20260904073024 20 41 1.6 4.8 0.00 2.79 0.00 96 1014.4
20260904072833 20 5 0.0 3.2 0.00 2.79 0.00 96 1014.4
20260904072502 20 5 0.0 3.2 0.00 2.79 0.00 96 1014.3
20260904072333 20 18 1.6 8.0 0.00 2.79 0.00 96 1014.4
20260904072005 20 32 1.6 8.0 0.00 2.79 0.00 96 1014.5
20260904071833 20 35 1.6 8.0 0.00 2.82 0.00 96 1014.6
20260904071503 20 28 1.6 8.0 0.00 2.87 0.00 96 1014.6
20260904071333 20 2 1.6 6.4 0.00 2.90 0.00 96 1014.7
20260904071003 20 321 1.6 4.8 0.00 2.90 0.00 96 1014.7
20260904070833 20 307 1.6 6.4 0.00 2.92 0.00 96 1014.7
20260904070503 20 303 1.6 6.4 0.00 2.92 0.00 96 1014.7
20260904070333 20 301 0.0 6.4 0.00 2.92 0.00 96 1014.8
20260904070003 20 301 0.0 6.4 0.00 2.92 0.00 96 1014.9
20260904065833 20 0 0.0 0.0 0.00 2.92 0.00 96 1014.9
20260904065524 20 0 0.0 0.0 0.00 2.92 0.00 96 1015.0
20260904065333 20 0 0.0 0.0 0.00 2.92 0.00 96 1014.9
20260904065006 20 0 0.0 0.0 0.00 2.92 0.00 96 1014.9
20260904064833 20 0 0.0 0.0 0.00 2.92 0.00 96 1015.1
20260904064524 20 0 0.0 0.0 0.00 2.95 0.00 96 1015.1
20260904064333 20 0 0.0 0.0 0.00 3.00 0.00 96 1015.1
20260904064003 20 0 0.0 0.0 0.00 3.10 0.00 96 1015.2
20260904063833 20 0 0.0 0.0 0.00 3.15 0.00 96 1015.2
20260904063506 20 0 0.0 0.0 0.00 3.17 0.00 96 1015.2
20260904063332 20 0 0.0 0.0 0.00 3.17 0.00 96 1015.2
20260904063003 20 0 0.0 0.0 0.00 3.20 0.00 96 1015.0
20260904062832 20 0 0.0 0.0 0.00 3.20 0.00 96 1015.1
20260904062503 20 0 0.0 0.0 0.00 3.20 0.00 96 1015.0
20260904062332 20 0 0.0 0.0 0.00 3.20 0.00 96 1015.0